Simultaneous Nadir Overpasses (SNOs) Predictions

Prediction of SNOs between GOES-14 and NOAA-20 Satellite Orbit:

Table of predicted SNOs for the next 14.0 days since TLE Epoch: 9/16/2023
Index Date Time (GOES-14) GOES-14 Lat,Lon NOAA-20 Lat,Lon Distance(km) Time Diff (sec)
1 09/16/2023 08:43:37 0.37,-108.61 0.65,-109.80 136.34 80
2 09/17/2023 08:27:32 0.37,-108.61 -0.36,-105.26 380.54 80
3 09/18/2023 20:46:47 -0.35,-108.52 -0.81,-110.57 233.18 80
4 09/19/2023 20:30:42 -0.36,-108.52 0.21,-106.04 283.65 80
5 09/21/2023 08:49:49 0.34,-108.60 0.92,-111.31 308.37 80
6 09/22/2023 08:33:43 0.35,-108.60 -0.04,-106.77 207.87 80
7 09/23/2023 20:52:58 -0.32,-108.50 -1.12,-112.07 407.42 80
8 09/24/2023 20:36:52 -0.33,-108.49 -0.09,-107.54 108.83 80
9 09/26/2023 08:55:59 0.30,-108.57 1.27,-112.81 483.33 80
10 09/27/2023 08:39:53 0.31,-108.57 0.25,-108.28 33.00 80
11 09/29/2023 20:40:22 -0.30,-108.47 -0.43,-109.04 65.36 80
